Rechercher aéroport 
image banner adimage banner adimage banner ad
image banner ad

SVOZ - Banco Occidental De Descuento

Situé à Maracaibo, Venezuela

ICAO - SVOZ, IATA -

Données fournies par Airmate  

Information générale

Coordonnées: N10°39'57" W71°37'6"
Élévation : 209 feet MSL.
 
Voir autres Aéroports à Apure

Données opérationnelles

Special qualification required
Heure actuelle UTC:
Heure actuelle locale:
Météo à : SVMC - Maracaibo / La Chinita Intl ( 17 km )
TAF: TAF SVMC 240400Z 2406/2506 19005KT 9999 SCT013 TX35/2406Z TN23/2408Z BECMG 2404/2410 22008KT9999 SCT013
Voir NOTAMs / SUP AIP / TFR affectant cet aéroport [VIEW]
Fréquences de communication: [VIEW]

Pistes:

Coordonnées de l'aéroport

Adresse: Maracaibo Venezuela

Vue satellite de SVOZ